logo tempoitalia

Diretta Meteo Nyiregyhaza-Napkor, Ungherialunedì 31 agosto ore 06:45

Mappa
Sereno 14 °C Sereno 24 Ore: T.min 12 T.max 31
Ponente Nord Km/h 0 Punto di rugiada: 13 °C Umidità: 93% Visibilità: 10 Km
Il sole sorge alle: 05:48 Il sole tramonta alle: 19:16
31 Agosto 2026 06:45 tempo osservato: Sereno Sereno 14 93 1016 vento: Nord N 0
31 Agosto 2026 06:15 tempo osservato: Sereno Sereno 12 93 1016 vento: Nord N 0
31 Agosto 2026 05:45 tempo osservato: Sereno Sereno 12 93 1016 vento: Nord N 3.7
31 Agosto 2026 05:15 tempo osservato: Sereno Sereno 13 87 1016 vento: Nord N 1.8
31 Agosto 2026 04:45 tempo osservato: Sereno Sereno 14 87 1016 vento: Nord N 3.7
31 Agosto 2026 04:15 tempo osservato: Sereno Sereno 13 93 1016 vento: Nord N 0
31 Agosto 2026 03:45 tempo osservato: Sereno Sereno 13 93 1016 vento: Nord N 1.8
31 Agosto 2026 03:15 tempo osservato: Sereno Sereno 13 93 1016 vento: Nord N 1.8
31 Agosto 2026 02:45 tempo osservato: Sereno Sereno 14 87 1016 vento: Nord N 0
31 Agosto 2026 02:15 tempo osservato: Sereno Sereno 14 87 1016 vento: Nord N 0
31 Agosto 2026 01:45 tempo osservato: Sereno Sereno 15 82 1016 vento: Nord N 0
31 Agosto 2026 01:15 tempo osservato: Sereno Sereno 16 77 1016 vento: Nord N 0
31 Agosto 2026 00:45 tempo osservato: Sereno Sereno 15 82 1016 vento: Nord N 1.8
31 Agosto 2026 00:15 tempo osservato: Sereno Sereno 16 77 1016 vento: Nord N 3.7
30 Agosto 2026 23:45 tempo osservato: Sereno Sereno 16 82 1016 vento: Nord N 3.7
30 Agosto 2026 23:15 tempo osservato: Sereno Sereno 16 82 1016 vento: Nord N 3.7
30 Agosto 2026 22:45 tempo osservato: Sereno Sereno 17 77 1016 vento: Nord N 1.8
30 Agosto 2026 22:15 tempo osservato: Sereno Sereno 18 72 1016 vento: Nord N 3.7
30 Agosto 2026 21:45 tempo osservato: Sereno Sereno 18 67 1016 vento: Nord N 0
30 Agosto 2026 21:15 tempo osservato: Sereno Sereno 19 63 1016 vento: Nord N 1.8
30 Agosto 2026 20:45 tempo osservato: Sereno Sereno 20 68 1015 vento: Nord N 1.8
30 Agosto 2026 20:15 tempo osservato: Sereno Sereno 22 56 1015 vento: Nord N 0
30 Agosto 2026 19:45 tempo osservato: Sereno Sereno 23 49 1015 vento: Nord N 0
30 Agosto 2026 19:15 tempo osservato: Sereno Sereno 26 41 1015 vento: Nord N 1.8
30 Agosto 2026 18:45 tempo osservato: Sereno Sereno 30 30 1015 vento: Nord N 1.8
30 Agosto 2026 18:15 tempo osservato: Sereno Sereno 30 30 1015 vento: Nord N 5.5
30 Agosto 2026 17:45 tempo osservato: Sereno Sereno 31 27 1015 vento: Nord N 5.5
30 Agosto 2026 17:15 tempo osservato: Sereno Sereno 31 25 1015 vento: Nord O/NO 9.3
30 Agosto 2026 16:45 tempo osservato: Sereno Sereno 31 23 1015 vento: Nord N 7.4
30 Agosto 2026 16:15 tempo osservato: Sereno Sereno 31 25 1015 vento: Nord O 14.8
30 Agosto 2026 15:45 tempo osservato: Sereno Sereno 31 31 1015 vento: Nord N 9.3
30 Agosto 2026 15:15 tempo osservato: Sereno Sereno 31 31 1015 vento: Nord N 11.1
30 Agosto 2026 14:45 tempo osservato: Sereno Sereno 31 33 1015 vento: Nord N 9.3
30 Agosto 2026 14:15 tempo osservato: Sereno Sereno 31 31 1016 vento: Nord N 7.4
30 Agosto 2026 13:45 tempo osservato: Sereno Sereno 30 35 1016 vento: Nord N 9.3
30 Agosto 2026 13:15 tempo osservato: Sereno Sereno 29 42 1016 vento: Nord N 9.3
30 Agosto 2026 12:45 tempo osservato: Sereno Sereno 29 42 1016 vento: Nord N 5.5
30 Agosto 2026 12:15 tempo osservato: Sereno Sereno 28 48 1016 vento: Nord N 7.4
30 Agosto 2026 11:45 tempo osservato: Sereno Sereno 27 50 1017 vento: Nord N 3.7
30 Agosto 2026 11:15 tempo osservato: Foschia Foschia 26 57 1017 vento: Nord N 7.4
30 Agosto 2026 10:45 tempo osservato: Sereno Sereno 25 61 1017 vento: Nord N 5.5
30 Agosto 2026 10:15 tempo osservato: Sereno Sereno 24 64 1017 vento: Nord N 7.4
30 Agosto 2026 09:45 tempo osservato: Sereno Sereno 24 64 1017 vento: Nord N 5.5
30 Agosto 2026 09:15 tempo osservato: Sereno Sereno 22 68 1017 vento: Nord N 3.7
30 Agosto 2026 08:45 tempo osservato: Sereno Sereno 21 73 1016 vento: Nord N 5.5
30 Agosto 2026 08:15 tempo osservato: Sereno Sereno 19 82 1016 vento: Nord N/NE 9.3
30 Agosto 2026 07:45 tempo osservato: Sereno Sereno 18 82 1016 vento: Nord N/NE 7.4